Total_Precipitation_Accumulation
0.62 0.56 0.52 0.50 0.47 0.37 0.31 0.31 0.27 0.25 0.23 0.20 0.17 0.14 0.13 0.12 0.11 0.12 0.12 0.12 0.11 0.14 0.22 0.28 0.33 0.35 0.39 0.43 0.46 0.48 0.45 0.44 0.43 0.43 0.43 0.43 0.42 0.43 0.43 0.43 0.43 0.44 0.44
0.72 0.60 0.56 0.54 0.50 0.45 0.40 0.37 0.32 0.31 0.29 0.26 0.20 0.16 0.13 0.13 0.13 0.12 0.12 0.12 0.12 0.11 0.14 0.23 0.32 0.39 0.46 0.53 0.61 0.65 0.62 0.59 0.56 0.55 0.54 0.53 0.52 0.49 0.50 0.51 0.49 0.51 0.52
0.91 0.78 0.67 0.59 0.51 0.49 0.49 0.49 0.47 0.43 0.37 0.32 0.25 0.21 0.18 0.16 0.14 0.13 0.13 0.13 0.12 0.11 0.12 0.17 0.25 0.34 0.41 0.52 0.64 0.73 0.75 0.74 0.73 0.70 0.66 0.65 0.65 0.64 0.64 0.64 0.64 0.67 0.69
0.98 0.93 0.80 0.69 0.62 0.59 0.57 0.58 0.55 0.50 0.44 0.39 0.33 0.30 0.26 0.22 0.18 0.17 0.16 0.14 0.13 0.11 0.11 0.14 0.18 0.23 0.31 0.43 0.57 0.71 0.75 0.74 0.74 0.72 0.69 0.68 0.68 0.69 0.72 0.74 0.77 0.80 0.86
1.04 0.99 0.91 0.80 0.77 0.72 0.62 0.58 0.59 0.53 0.50 0.47 0.45 0.40 0.34 0.30 0.27 0.26 0.24 0.21 0.18 0.16 0.14 0.13 0.15 0.18 0.22 0.30 0.43 0.60 0.75 0.78 0.79 0.80 0.80 0.77 0.75 0.76 0.78 0.82 0.87 0.94 1.03
1.15 1.09 1.03 0.97 0.92 0.92 0.84 0.72 0.64 0.61 0.56 0.52 0.51 0.49 0.46 0.41 0.35 0.32 0.29 0.27 0.25 0.22 0.20 0.20 0.19 0.18 0.19 0.23 0.30 0.43 0.62 0.75 0.81 0.83 0.85 0.87 0.86 0.86 0.88 0.94 1.04 1.13 1.27
1.29 1.19 1.05 1.04 1.05 1.02 0.99 0.94 0.89 0.83 0.76 0.73 0.72 0.63 0.52 0.48 0.44 0.38 0.35 0.32 0.29 0.27 0.25 0.25 0.25 0.24 0.23 0.24 0.28 0.34 0.45 0.62 0.82 0.91 0.92 0.92 0.94 1.00 1.08 1.16 1.26 1.37 1.46
1.37 1.34 1.20 1.04 1.03 1.05 1.04 1.05 1.07 1.06 1.01 0.98 0.98 0.95 0.79 0.62 0.47 0.39 0.38 0.38 0.37 0.37 0.36 0.34 0.33 0.32 0.31 0.30 0.29 0.32 0.38 0.46 0.64 0.88 1.03 1.07 1.09 1.14 1.28 1.45 1.57 1.65 1.74
1.60 1.47 1.44 1.30 1.14 1.09 1.02 0.97 0.97 1.01 1.03 1.05 1.05 1.13 1.03 0.79 0.59 0.47 0.39 0.37 0.38 0.41 0.40 0.39 0.37 0.36 0.35 0.33 0.31 0.32 0.35 0.40 0.51 0.74 1.02 1.23 1.33 1.43 1.58 1.77 1.96 2.10 2.15
1.89 1.81 1.67 1.57 1.40 1.26 1.15 1.10 1.06 1.04 1.07 1.07 1.05 1.00 0.97 0.85 0.81 0.66 0.47 0.41 0.40 0.40 0.42 0.41 0.37 0.37 0.39 0.40 0.41 0.42 0.46 0.49 0.57 0.72 0.98 1.26 1.50 1.73 1.97 2.14 2.27 2.40 2.43
1.94 1.90 1.84 1.76 1.60 1.48 1.39 1.35 1.29 1.24 1.22 1.17 1.11 1.05 1.03 0.93 0.85 0.86 0.65 0.46 0.47 0.46 0.49 0.50 0.48 0.45 0.46 0.49 0.51 0.56 0.61 0.63 0.70 0.84 1.09 1.38 1.74 2.08 2.36 2.54 2.61 2.56 2.50
2.06 1.90 1.84 1.82 1.74 1.67 1.61 1.58 1.56 1.47 1.39 1.31 1.26 1.19 1.20 1.15 1.00 1.00 0.92 0.69 0.62 0.56 0.56 0.59 0.61 0.62 0.60 0.61 0.63 0.71 0.72 0.72 0.78 0.90 1.18 1.49 1.70 1.91 2.13 2.38 2.57 2.64 2.66
2.03 1.93 1.86 1.85 1.83 1.72 1.70 1.69 1.65 1.55 1.49 1.43 1.40 1.35 1.28 1.21 1.17 1.21 1.24 1.07 0.92 0.74 0.68 0.65 0.65 0.67 0.70 0.72 0.73 0.82 0.79 0.84 0.86 0.90 1.06 1.37 1.52 1.55 1.61 1.77 2.06 2.32 2.51
2.00 1.98 1.96 1.86 1.84 1.80 1.71 1.68 1.64 1.54 1.49 1.46 1.42 1.41 1.37 1.29 1.29 1.34 1.40 1.46 1.35 1.07 0.88 0.76 0.72 0.78 0.83 0.85 0.87 0.91 0.77 0.82 0.82 0.85 0.91 1.04 1.12 1.11 1.15 1.28 1.48 1.71 1.93
1.88 1.85 1.86 1.78 1.69 1.67 1.64 1.62 1.58 1.50 1.44 1.37 1.33 1.33 1.32 1.26 1.27 1.31 1.38 1.54 1.72 1.55 1.15 0.87 0.80 0.80 0.87 0.90 0.95 0.90 0.78 0.84 0.85 0.83 0.83 0.83 0.85 0.89 0.93 1.02 1.14 1.27 1.42
1.52 1.58 1.61 1.61 1.54 1.51 1.50 1.48 1.43 1.41 1.39 1.30 1.24 1.23 1.20 1.16 1.20 1.26 1.34 1.41 1.58 1.70 1.43 0.96 0.80 0.75 0.79 0.80 0.86 0.80 0.73 0.83 0.79 0.74 0.71 0.72 0.76 0.81 0.85 0.90 0.95 1.03 1.12
1.17 1.22 1.23 1.26 1.30 1.31 1.32 1.31 1.29 1.28 1.30 1.25 1.21 1.21 1.20 1.17 1.18 1.18 1.22 1.26 1.33 1.46 1.45 1.03 0.85 0.82 0.81 0.78 0.77 0.74 0.69 0.69 0.67 0.73 0.69 0.69 0.70 0.76 0.83 0.86 0.88 0.92 0.97
0.99 0.99 1.00 0.99 1.00 1.02 1.06 1.09 1.08 1.09 1.13 1.12 1.10 1.13 1.13 1.16 1.19 1.17 1.16 1.15 1.13 1.14 1.23 1.07 0.81 0.77 0.76 0.75 0.79 0.80 0.74 0.68 0.63 0.70 0.70 0.67 0.69 0.71 0.75 0.83 0.88 0.92 0.94
0.89 0.86 0.85 0.85 0.84 0.84 0.86 0.92 0.98 1.00 1.02 1.02 1.01 1.01 1.02 1.06 1.08 1.04 1.02 1.01 0.99 1.01 1.09 1.10 0.89 0.77 0.74 0.75 0.81 0.81 0.77 0.74 0.69 0.74 0.79 0.76 0.77 0.76 0.78 0.84 0.90 0.95 0.98
0.92 0.83 0.78 0.76 0.77 0.79 0.82 0.85 0.94 0.99 0.99 1.00 1.00 1.00 0.96 0.93 0.90 0.89 0.91 0.93 1.00 1.09 1.11 1.16 1.04 0.87 0.81 0.78 0.86 0.85 0.82 0.76 0.76 0.76 0.87 0.91 0.90 0.86 0.83 0.86 0.90 0.96 1.00
0.91 0.90 0.85 0.81 0.79 0.79 0.83 0.88 0.91 0.96 0.97 0.98 0.96 0.93 0.91 0.92 0.88 0.86 0.87 0.91 1.00 1.14 1.25 1.31 1.23 1.07 0.95 0.88 0.85 0.84 0.93 0.92 0.91 0.86 0.87 0.90 0.90 0.91 0.89 0.91 0.93 0.94 1.00
0.86 0.92 0.96 0.94 0.89 0.87 1.00 0.99 0.92 0.93 0.96 0.96 0.93 0.87 0.84 0.89 0.87 0.87 0.88 0.95 1.09 1.24 1.38 1.43 1.38 1.22 0.97 0.85 0.86 0.99 1.15 1.32 1.25 0.89 0.90 0.94 0.92 0.99 0.95 0.91 1.04 1.09 1.08
0.95 0.96 1.01 1.04 1.02 1.06 1.09 0.97 0.95 0.87 0.87 0.89 0.87 0.84 0.80 0.77 0.82 0.76 0.82 0.95 1.03 1.14 1.20 1.21 1.19 1.00 0.88 0.84 1.05 1.30 1.35 1.40 1.21 0.93 1.07 1.20 1.06 1.03 0.96 0.99 1.15 1.10 1.07
0.96 1.00 1.03 1.02 0.99 1.00 1.01 0.90 0.87 0.81 0.81 0.82 0.80 0.78 0.80 0.81 0.80 0.85 0.90 0.97 0.87 0.82 0.84 0.85 0.87 0.86 0.88 0.97 1.24 1.56 1.68 1.69 1.47 1.25 1.25 1.35 1.10 1.00 0.95 0.99 1.13 1.08 1.00
0.93 0.91 0.91 0.92 0.92 0.92 0.90 0.82 0.79 0.74 0.75 0.72 0.70 0.69 0.71 0.73 0.88 1.05 1.09 1.09 0.91 0.73 0.75 0.85 0.94 0.97 1.02 1.10 1.22 1.54 1.80 1.94 1.71 1.28 1.13 1.23 1.13 1.07 1.06 1.02 1.04 1.10 1.03
0.86 0.83 0.78 0.76 0.75 0.77 0.80 0.75 0.73 0.69 0.71 0.68 0.65 0.64 0.70 0.73 0.87 1.03 1.00 1.05 1.00 0.84 0.81 0.84 0.87 0.91 0.89 0.97 1.17 1.33 1.79 2.29 2.04 1.55 1.06 1.18 1.22 1.31 1.52 1.13 0.97 0.99 1.02